[[{"header":{"parameterUnit":"m.s-1","parameterCategory":2,"la1":30.2991,"la2":30.254,"lo1":-89.0895,"lo2":-89.0444,"dy":0.0017,"dx":0.0017,"nx":28,"ny":28,"refTime":"2024-11-26T03:00:00:Z","depth":"0","parameterNumber":2,"parameterNumberName":"U-component_of_CURRENTS"},"data":[0,0,0,0,0,0,0,0,0,0,0,0,0,0,0,0,0,0,0,0,0,0,0,0,0,0,0,0,0,0,0,0,0,0,0,0,0,0,0,0,0,0,0,0,0,0,0,0,0,0,0,0,0,0,0,0,0,0,0.3373,0.3373,0,0.3342,0.3342,0.3341,0.3256,0.3255,0.3253,0.3252,0.3179,0.3178,0.3177,0,0,0,0,0,0,0,0,0,0,0,0,0,0.3348,0.3349,0.3373,0.3373,0.3373,0.3343,0.3342,0.3341,0.3256,0.3255,0.3253,0.3252,0.3179,0.3178,0.3177,0,0,0,0,0,0,0,0,0,0,0,0,0,0.3337,0.3349,0.3373,0.3332,0.3328,0.3343,0.3342,0.334,0.3257,0.3255,0.3253,0.3251,0.318,0.3178,0.3177,0.3209,0,0,0.3174,0.3173,0,0,0,0,0,0,0,0,0.3338,0.3337,0.3338,0.3335,0.3331,0.3306,0.3306,0.3296,0.3257,0.3277,0.3252,0.325,0.3223,0.3218,0.3209,0.3205,0.3202,0.3174,0.3173,0.3173,0.3172,0,0,0,0,0,0,0,0.3338,0.3338,0.3354,0.3338,0.3334,0.3312,0.3308,0.3304,0.3256,0.3275,0.3271,0.3278,0.322,0.321,0.3206,0.3201,0.3174,0.3173,0.3172,0.3172,0.3265,0.3268,0,0,0,0,0,0,0.3357,0.3339,0.3356,0.3354,0.3336,0.3315,0.331,0.3311,0.3257,0.3249,0.3279,0.3274,0.3213,0.3208,0.3203,0.3261,0.3173,0.3171,0.3171,0.3262,0.3266,0.3269,0,0,0,0,0,0,0.3357,0.3359,0.3357,0.3351,0.335,0.3318,0.332,0.3312,0.3304,0.3261,0.325,0.3281,0.3211,0.3205,0.3226,0.3257,0.3171,0.317,0.3258,0.3263,0.3267,0.3362,0,0,0,0,0,0,0.3356,0.3359,0.3371,0.3352,0.3351,0.3369,0.3322,0.3313,0.3314,0.3307,0.326,0.3251,0.3209,0.3228,0.3225,0.3253,0.3169,0.3254,0.326,0.3266,0.3354,0.3369,0.3381,0,0,0,0,0,0.3355,0.3374,0.3372,0.3375,0.3367,0.3371,0.3368,0.3334,0.3317,0.3319,0.3307,0.3252,0.3263,0.323,0.3225,0.3254,0.3251,0.3258,0.3265,0.3348,0.3366,0.3381,0,0,0,0,0,0,0.3363,0.3367,0.3364,0.3382,0.3383,0.3359,0.3363,0.3351,0.3342,0.3335,0.3291,0.3283,0.3317,0.3286,0.3251,0.3305,0.3249,0.3256,0.3314,0.333,0.3344,0.3323,0.3168,0,0,0,0,0,0.3379,0.3389,0.3393,0.3405,0.3412,0.3395,0.3396,0.3377,0.3369,0.3361,0.3335,0.3326,0.3345,0.3337,0.3339,0.3364,0.3363,0.3384,0.3398,0.3409,0.3394,0.3445,0.3461,0.3292,0.3292,0.3292,0,0,0.3386,0.3389,0.3396,0.3409,0.3403,0.3411,0.3388,0.3393,0.3397,0.3359,0.3359,0.3374,0.3369,0.34,0.3411,0.3372,0.3468,0.3418,0.3427,0.3405,0.3454,0.347,0.3484,0.3297,0.3296,0.3296,0,0,0.3402,0.341,0.3428,0.3433,0.3441,0.3431,0.3441,0.3433,0.3426,0.3448,0.3439,0.3479,0.3473,0.3485,0.3492,0.3586,0.3548,0.359,0.3622,0.3674,0.3687,0.3698,0.3758,0.3774,0.3583,0.3583,0.3583,0,0.3413,0.3425,0.3434,0.3449,0.3448,0.3445,0.3454,0.346,0.3458,0.3467,0.3455,0.3507,0.3513,0.3566,0.3607,0.3612,0.3635,0.3556,0.3689,0.37,0.371,0.3767,0.3784,0.3589,0.3588,0.3588,0.3587,0,0.3441,0.3448,0.3457,0.3469,0.3477,0.3481,0.3493,0.3505,0.3506,0.351,0.3565,0.3593,0.3612,0.3648,0.3655,0.374,0.3735,0.371,0.3639,0.3732,0.3788,0.3803,0.3596,0.3594,0.3593,0.3592,0,0,0.345,0.3473,0.347,0.3464,0.3481,0.3478,0.3511,0.3529,0.3536,0.3571,0.3591,0.3678,0.3689,0.3701,0.3729,0.3786,0.3915,0.3782,0.3782,0.3826,0.4043,0.3989,0.4,0.3911,0.3914,0.3915,0.4067,0,0.3458,0.3472,0.3489,0.3485,0.3482,0.3497,0.3515,0.3537,0.3556,0.3577,0.3641,0.3672,0.3709,0.3728,0.3801,0.388,0.3953,0.3876,0.3957,0.396,0.3888,0.4015,0.3881,0.3999,0.4081,0.4083,0.4085,0,0.3463,0.3467,0.3469,0.3463,0.3466,0.3471,0.3478,0.3499,0.3551,0.357,0.3626,0.3659,0.3768,0.3771,0.395,0.39,0.3982,0.4044,0.405,0.3964,0.3933,0.3913,0.4022,0.383,0.4108,0.4106,0.4104,0,0.3417,0.3437,0.3426,0.3427,0.3441,0.3447,0.3455,0.3493,0.3502,0.3562,0.3575,0.3687,0.3733,0.3862,0.4001,0.3984,0.4183,0.4165,0.4198,0.4195,0.4075,0.4056,0.3983,0.4289,0.4289,0.4288,0.4288,0,0.3387,0.337,0.3401,0.3386,0.3373,0.3403,0.3395,0.3424,0.3464,0.3473,0.3561,0.3591,0.3757,0.3879,0.4011,0.4157,0.4196,0.4226,0.4235,0.411,0.4093,0.391,0.3832,0.4294,0.4293,0.4292,0.4291,0,0.3314,0.3338,0.332,0.3341,0.3343,0.3329,0.3343,0.3339,0.3392,0.341,0.3429,0.3542,0.3697,0.3866,0.4074,0.415,0.4176,0.4338,0.4185,0.4172,0.3992,0.3926,0.3792,0.371,0.4401,0.4401,0.4401,0,0.3271,0.3257,0.3271,0.3253,0.3255,0.3248,0.3239,0.329,0.329,0.3375,0.3378,0.352,0.3607,0.3891,0.4065,0.4282,0.4143,0.4251,0.4187,0.3976,0.3911,0.3763,0.3694,0.4095,0.4093,0.409,0.4088,0,0.3182,0.3194,0.3184,0.3158,0.3142,0.3129,0.3128,0.312,0.3183,0.3217,0.3271,0.3351,0.3604,0.3737,0.3997,0.4126,0.3999,0.4208,0.4027,0.3698,0.3494,0.342,0.4009,0.4068,0.407,0.4072,0.4073,0.4074,0.3108,0.3089,0.3081,0.3045,0.3023,0.2992,0.2957,0.2981,0.2986,0.3015,0.3139,0.3215,0.3407,0.3749,0.3855,0.3849,0.3875,0.3766,0.3724,0.3609,0.3442,0.3986,0.4017,0.4019,0.4021,0.4022,0.4023,0,0.3006,0.2995,0.296,0.2915,0.2849,0.2883,0.2858,0.2819,0.28,0.2887,0.294,0.3033,0.3167,0.3326,0.3429,0.3356,0.3291,0.326,0.3003,0.2982,0.3503,0.3395,0.3241,0.3242,0.3242,0.3242,0.3242,0.3242,0.2949,0.2894,0.2884,0.2752,0.2713,0.2623,0.2596,0.2569,0.2599,0.2572,0.2589,0.2664,0.2773,0.285,0.2803,0.281,0.2607,0.2532,0.2524,0.2842,0.2883,0.2923,0.2799,0.2523,0.2523,0.1906,0.1901,0.1897]},{"header":{"parameterUnit":"m.s-1","parameterCategory":2,"la1":30.2991,"la2":30.254,"lo1":-89.0895,"lo2":-89.0444,"dy":0.0017,"dx":0.0017,"nx":28,"ny":28,"refTime":"2024-11-26T03:00:00:Z","depth":"0","parameterNumber":3,"parameterNumberName":"V-component_of_CURRENTS"},"data":[0,0,0,0,0,0,0,0,0,0,0,0,0,0,0,0,0,0,0,0,0,0,0,0,0,0,0,0,0,0,0,0,0,0,0,0,0,0,0,0,0,0,0,0,0,0,0,0,0,0,0,0,0,0,0,0,0,0,0.0176,0.0176,0,0.0196,0.0196,0.0196,0.0186,0.0186,0.0186,0.0186,0.0132,0.0131,0.013,0,0,0,0,0,0,0,0,0,0,0,0,0,0.0106,0.0108,0.0176,0.0176,0.0177,0.0196,0.0196,0.0196,0.0186,0.0186,0.0186,0.0186,0.0133,0.0131,0.013,0,0,0,0,0,0,0,0,0,0,0,0,0,0.013,0.0108,0.0176,0.0177,0.0178,0.0196,0.0196,0.0196,0.0187,0.0186,0.0186,0.0186,0.0133,0.0131,0.013,0.0125,0,0,0.0124,0.0123,0,0,0,0,0,0,0,0,0.0128,0.0132,0.0176,0.0177,0.0178,0.0191,0.0152,0.017,0.0187,0.018,0.0186,0.0185,0.0148,0.0145,0.0145,0.0122,0.012,0.0124,0.0123,0.0122,0.0121,0,0,0,0,0,0,0,0.0127,0.0131,0.018,0.0177,0.0178,0.0169,0.0172,0.0155,0.0161,0.018,0.018,0.0188,0.0147,0.0147,0.0144,0.0119,0.0124,0.0122,0.0121,0.012,0.0099,0.01,0,0,0,0,0,0,0.0133,0.0129,0.018,0.0181,0.0155,0.0171,0.0174,0.0185,0.0163,0.0161,0.0188,0.0188,0.0151,0.0146,0.0142,0.017,0.0122,0.012,0.0119,0.0099,0.0099,0.01,0,0,0,0,0,0,0.0131,0.0137,0.0179,0.0158,0.0163,0.0173,0.0185,0.0185,0.0187,0.0171,0.0166,0.019,0.015,0.0145,0.0143,0.0166,0.0119,0.0118,0.0098,0.0099,0.01,0.0203,0,0,0,0,0,0,0.0129,0.0137,0.0143,0.0159,0.0165,0.0197,0.0185,0.0186,0.0193,0.0193,0.017,0.0165,0.0149,0.0146,0.0141,0.0163,0.0116,0.0097,0.0098,0.0099,0.0199,0.0207,0.0215,0,0,0,0,0,0.0127,0.0141,0.0143,0.015,0.0175,0.0198,0.02,0.0203,0.0194,0.0201,0.0192,0.0166,0.0148,0.0145,0.0139,0.0161,0.0097,0.0098,0.0099,0.0196,0.0206,0.0214,0,0,0,0,0,0,0.0115,0.0143,0.0145,0.0167,0.0184,0.0198,0.0207,0.0205,0.0204,0.02,0.0178,0.0173,0.0179,0.0151,0.0148,0.0155,0.0116,0.0116,0.0191,0.02,0.0208,0.0225,0.0115,0,0,0,0,0,0.0116,0.0133,0.0157,0.0174,0.0186,0.0195,0.0203,0.0206,0.021,0.0208,0.0196,0.0181,0.0179,0.0175,0.0161,0.0167,0.0142,0.0173,0.0181,0.0188,0.0196,0.0185,0.0194,0.0104,0.0104,0.0104,0,0,0.0118,0.0134,0.0144,0.0172,0.0185,0.0212,0.0198,0.0216,0.0241,0.0202,0.0223,0.0206,0.0185,0.0199,0.0198,0.018,0.02,0.0189,0.0196,0.02,0.0188,0.0196,0.0204,0.0105,0.0105,0.0105,0,0,0.0135,0.0144,0.0168,0.0185,0.021,0.0221,0.0228,0.0245,0.0256,0.0275,0.0257,0.0259,0.0246,0.0248,0.0245,0.0282,0.024,0.0269,0.0327,0.0318,0.0325,0.0332,0.0316,0.032,0.0275,0.0275,0.0275,0,0.0136,0.0169,0.0177,0.0206,0.0227,0.0229,0.0262,0.0278,0.0291,0.0311,0.0291,0.0295,0.0275,0.0307,0.0325,0.0303,0.0285,0.03,0.033,0.0336,0.0341,0.0323,0.0326,0.028,0.028,0.0279,0.0279,0,0.0172,0.0199,0.0216,0.0255,0.0277,0.0304,0.0333,0.0354,0.0362,0.0378,0.0406,0.0386,0.0386,0.0384,0.0371,0.04,0.0372,0.0343,0.0314,0.0357,0.0334,0.0336,0.0288,0.0286,0.0284,0.0283,0,0,0.0177,0.0232,0.0238,0.0267,0.0306,0.033,0.038,0.043,0.0467,0.0475,0.0518,0.0523,0.0503,0.0497,0.0474,0.0475,0.0497,0.0432,0.0429,0.0429,0.0474,0.0451,0.045,0.0476,0.0477,0.0477,0.0446,0,0.0206,0.0265,0.0287,0.0347,0.0383,0.0408,0.0456,0.0498,0.0526,0.0565,0.0565,0.0584,0.0549,0.0548,0.0548,0.051,0.0506,0.0508,0.042,0.0418,0.0403,0.0453,0.0463,0.0436,0.0448,0.0448,0.0448,0,0.0236,0.0272,0.0334,0.0402,0.0421,0.0455,0.0529,0.0572,0.0631,0.0651,0.0673,0.0663,0.0678,0.0627,0.0598,0.0601,0.0546,0.0513,0.051,0.0454,0.0399,0.0392,0.0438,0.0329,0.045,0.045,0.045,0,0.0235,0.0308,0.0357,0.0379,0.0452,0.0489,0.053,0.0596,0.0645,0.0698,0.0729,0.0735,0.0734,0.0686,0.0626,0.0609,0.0584,0.0541,0.0468,0.0465,0.0439,0.0433,0.0381,0.051,0.051,0.051,0.051,0,0.0258,0.0299,0.0358,0.0385,0.045,0.0496,0.0569,0.0616,0.0683,0.0748,0.076,0.0802,0.0749,0.0732,0.0658,0.0583,0.0602,0.0493,0.0464,0.0474,0.0472,0.0345,0.028,0.0509,0.0509,0.0509,0.0509,0,0.0256,0.0294,0.0351,0.0424,0.0451,0.0494,0.0587,0.0644,0.0702,0.0784,0.0802,0.0852,0.0841,0.0782,0.0709,0.0622,0.0496,0.0508,0.0526,0.05,0.0317,0.0259,0.019,0.0164,0.0421,0.042,0.042,0,0.0266,0.0293,0.0365,0.0402,0.0437,0.0506,0.0563,0.064,0.0705,0.082,0.0862,0.089,0.0939,0.0839,0.07,0.0579,0.0484,0.0472,0.0436,0.0324,0.0237,0.0212,0.0194,0.044,0.044,0.0439,0.0439,0,0.0281,0.0298,0.034,0.041,0.0468,0.0546,0.063,0.0686,0.079,0.0876,0.0983,0.1037,0.0961,0.0887,0.0721,0.0608,0.041,0.046,0.0346,0.0257,0.0226,0.0182,0.0433,0.0437,0.0437,0.0437,0.0437,0.0438,0.0284,0.0311,0.0361,0.0428,0.0499,0.0596,0.0678,0.078,0.0904,0.1086,0.109,0.1239,0.1073,0.0872,0.0692,0.0363,0.0375,0.0263,0.0204,0.0191,0.0163,0.0408,0.0375,0.0375,0.0375,0.0375,0.0375,0,0.0292,0.0327,0.0388,0.0477,0.0562,0.0601,0.0739,0.0853,0.102,0.12,0.1327,0.136,0.1138,0.0867,0.0412,0.0165,0.0099,0.0031,-0.0004,-0.0009,0.0209,0.0205,0.0133,0.0133,0.0133,0.0133,0.0133,0.0133,0.03,0.0345,0.038,0.0515,0.0592,0.0738,0.083,0.1011,0.1178,0.1443,0.1583,0.1649,0.1408,0.0596,0.0049,-0.0077,-0.0219,-0.0252,-0.0316,-0.0191,-0.0174,-0.0158,-0.0176,-0.0326,-0.0327,-0.048,-0.0482,-0.0484]}],[{"header":{"parameterUnit":"m.s-1","parameterCategory":2,"la1":30.2991,"la2":30.254,"lo1":-89.0895,"lo2":-89.0444,"dy":0.0017,"dx":0.0017,"nx":28,"ny":28,"refTime":"2024-11-26T03:00:00:Z","depth":"2","parameterNumber":2,"parameterNumberName":"U-component_of_CURRENTS"},"data":[0,0,0,0,0,0,0,0,0,0,0,0,0,0,0,0,0,0,0,0,0,0,0,0,0,0,0,0,0,0,0,0,0,0,0,0,0,0,0,0,0,0,0,0,0,0,0,0,0,0,0,0,0,0,0,0,0,0,0.059,0.0591,0,0.0674,0.0675,0.0676,0.0849,0.0853,0.0856,0.086,0.103,0.1031,0.1032,0,0,0,0,0,0,0,0,0,0,0,0,0,0.0522,0.0522,0.059,0.0591,0.0592,0.0674,0.0675,0.0676,0.0849,0.0853,0.0857,0.0861,0.1029,0.1031,0.1032,0,0,0,0,0,0,0,0,0,0,0,0,0,0.0572,0.0522,0.0589,0.0688,0.0698,0.0674,0.0675,0.0676,0.0848,0.0853,0.0859,0.0863,0.1029,0.103,0.1032,0.0937,0,0,0.1038,0.1039,0,0,0,0,0,0,0,0,0.0569,0.0575,0.0673,0.0682,0.0693,0.0757,0.0713,0.0768,0.0847,0.079,0.086,0.0866,0.0943,0.0952,0.0954,0.0945,0.0953,0.1038,0.1039,0.104,0.104,0,0,0,0,0,0,0,0.0566,0.0572,0.0622,0.0673,0.0685,0.0709,0.0723,0.0724,0.0837,0.0796,0.0809,0.0817,0.095,0.0952,0.0959,0.0955,0.1038,0.104,0.1041,0.1041,0.1202,0.1205,0,0,0,0,0,0,0.0553,0.0568,0.062,0.0625,0.0643,0.0706,0.0722,0.073,0.0835,0.0856,0.0813,0.0825,0.0946,0.0957,0.0966,0.1055,0.104,0.1042,0.1043,0.1199,0.1203,0.1207,0,0,0,0,0,0,0.0551,0.0557,0.0616,0.0599,0.0609,0.0703,0.0711,0.0729,0.0787,0.0848,0.0871,0.0858,0.095,0.0964,0.1009,0.1057,0.1042,0.1044,0.1196,0.12,0.1205,0.1109,0,0,0,0,0,0,0.0549,0.0555,0.0563,0.0598,0.061,0.0638,0.0706,0.0727,0.0781,0.08,0.0892,0.0911,0.0956,0.1006,0.1011,0.1059,0.1046,0.1192,0.1198,0.1203,0.1108,0.1109,0.1111,0,0,0,0,0,0.0546,0.0548,0.0563,0.057,0.0615,0.0638,0.0646,0.0729,0.0778,0.0801,0.0862,0.0911,0.1052,0.1006,0.1012,0.1062,0.1189,0.1196,0.1203,0.1107,0.1109,0.1111,0,0,0,0,0,0,0.0546,0.0566,0.0585,0.0599,0.0627,0.0669,0.0699,0.0734,0.0793,0.0828,0.089,0.091,0.0983,0.1034,0.0983,0.1142,0.1152,0.116,0.1078,0.108,0.1082,0.112,0.1047,0,0,0,0,0,0.0534,0.0533,0.0563,0.0576,0.0595,0.0641,0.0664,0.0712,0.0761,0.0797,0.0857,0.0943,0.1002,0.1049,0.1104,0.114,0.1188,0.1206,0.1207,0.1208,0.1253,0.1288,0.1294,0.123,0.123,0.123,0,0,0.0538,0.0546,0.0551,0.0573,0.0607,0.0639,0.0672,0.0716,0.0761,0.0797,0.0886,0.0926,0.1012,0.1078,0.1122,0.1133,0.1256,0.1217,0.1215,0.1262,0.1295,0.1301,0.1306,0.1235,0.1234,0.1233,0,0,0.0543,0.0555,0.0564,0.0586,0.0627,0.065,0.0667,0.072,0.0776,0.082,0.0884,0.0937,0.1034,0.1095,0.1139,0.118,0.1249,0.1243,0.1283,0.1313,0.1317,0.1321,0.1385,0.1395,0.1257,0.1257,0.1257,0,0.0558,0.0569,0.0572,0.0597,0.0629,0.0661,0.07,0.0736,0.0801,0.0846,0.0866,0.1011,0.1045,0.114,0.1176,0.1178,0.1233,0.1242,0.1306,0.1312,0.1318,0.1382,0.1395,0.1253,0.1254,0.1254,0.1254,0,0.0573,0.0596,0.061,0.0647,0.0673,0.0709,0.0756,0.08,0.0854,0.0899,0.1,0.1028,0.114,0.1154,0.1174,0.1264,0.1301,0.1275,0.1276,0.1316,0.1385,0.1399,0.1248,0.1249,0.125,0.1251,0,0,0.0591,0.0616,0.0629,0.0658,0.0709,0.0734,0.0801,0.0872,0.0948,0.0996,0.1095,0.1157,0.1195,0.1254,0.128,0.1305,0.1351,0.1328,0.1331,0.135,0.1468,0.1424,0.1436,0.1332,0.1335,0.1337,0.1495,0,0.0622,0.0658,0.0669,0.0733,0.0767,0.0812,0.0878,0.0944,0.1011,0.1105,0.1148,0.1247,0.1232,0.1289,0.1309,0.1355,0.1392,0.1315,0.1469,0.1475,0.1392,0.1451,0.1267,0.1387,0.151,0.1512,0.1514,0,0.0652,0.0668,0.0725,0.0788,0.0815,0.0864,0.0981,0.1043,0.116,0.1223,0.1313,0.136,0.1444,0.1397,0.1503,0.1467,0.1489,0.1495,0.15,0.1513,0.1458,0.1376,0.141,0.1539,0.1537,0.1535,0.1534,0,0.0664,0.0718,0.0761,0.0785,0.0858,0.0918,0.0979,0.1094,0.1166,0.1316,0.1381,0.1486,0.1557,0.1593,0.164,0.1586,0.1744,0.1652,0.1636,0.1634,0.1542,0.1527,0.172,0.1719,0.1719,0.1719,0.1718,0,0.0689,0.0732,0.0777,0.0807,0.0886,0.0948,0.1064,0.1146,0.1274,0.1368,0.1455,0.1546,0.161,0.1699,0.1707,0.1758,0.1807,0.1685,0.1677,0.1506,0.1488,0.1671,0.1664,0.1725,0.1723,0.1722,0.1721,0,0.0699,0.0728,0.0779,0.0858,0.0892,0.0959,0.1085,0.1163,0.1299,0.1423,0.1476,0.1625,0.1768,0.1833,0.1922,0.1848,0.1886,0.1887,0.171,0.1676,0.1736,0.1723,0.1864,0.1864,0.1864,0.1864,0.1864,0,0.0703,0.0728,0.08,0.0828,0.0872,0.0969,0.1035,0.1171,0.1248,0.1462,0.1511,0.1707,0.1813,0.1958,0.1889,0.1921,0.199,0.1768,0.1592,0.1776,0.1754,0.1741,0.1728,0.1443,0.1439,0.1436,0.1434,0,0.0702,0.0733,0.0758,0.0811,0.0874,0.0944,0.105,0.1108,0.1277,0.139,0.1572,0.1681,0.1802,0.1768,0.1808,0.1771,0.1738,0.1705,0.1973,0.142,0.1386,0.1362,0.1362,0.1408,0.1411,0.1413,0.1414,0.1415,0.0692,0.0696,0.0725,0.0782,0.0844,0.0919,0.0999,0.1092,0.1218,0.139,0.1522,0.1624,0.1579,0.1529,0.1529,0.1518,0.1573,0.1485,0.149,0.15,0.1408,0.1374,0.138,0.1382,0.1384,0.1386,0.1388,0,0.0649,0.0665,0.0695,0.0754,0.0816,0.0899,0.1005,0.1064,0.12,0.1279,0.1435,0.1274,0.126,0.1316,0.1202,0.1149,0.1085,0.1172,0.1087,0.1111,0.1133,0.102,0.0892,0.0891,0.089,0.089,0,0,0.062,0.0613,0.0626,0.0705,0.0801,0.0937,0.1026,0.1083,0.111,0.112,0.1137,0.1184,0.1174,0.0973,0.0947,0.0945,0.1018,0.0902,0.1285,0.1204,0.1226,0.1287,0.1137,0,0,0,0,0]},{"header":{"parameterUnit":"m.s-1","parameterCategory":2,"la1":30.2991,"la2":30.254,"lo1":-89.0895,"lo2":-89.0444,"dy":0.0017,"dx":0.0017,"nx":28,"ny":28,"refTime":"2024-11-26T03:00:00:Z","depth":"2","parameterNumber":3,"parameterNumberName":"V-component_of_CURRENTS"},"data":[0,0,0,0,0,0,0,0,0,0,0,0,0,0,0,0,0,0,0,0,0,0,0,0,0,0,0,0,0,0,0,0,0,0,0,0,0,0,0,0,0,0,0,0,0,0,0,0,0,0,0,0,0,0,0,0,0,0,-0.001,-0.0011,0,-0.0119,-0.012,-0.0121,-0.0235,-0.0237,-0.0238,-0.0239,-0.036,-0.0362,-0.0364,0,0,0,0,0,0,0,0,0,0,0,0,0,0.0103,0.0101,-0.001,-0.0011,-0.0012,-0.0118,-0.012,-0.0122,-0.0235,-0.0237,-0.0238,-0.024,-0.0359,-0.0362,-0.0364,0,0,0,0,0,0,0,0,0,0,0,0,0,0.0028,0.0101,-0.001,-0.008,-0.0087,-0.0118,-0.012,-0.0122,-0.0235,-0.0237,-0.0239,-0.0241,-0.0359,-0.0361,-0.0364,-0.0341,0,0,-0.0373,-0.0374,0,0,0,0,0,0,0,0,0.0032,0.0024,-0.0068,-0.0075,-0.0083,-0.0163,-0.0125,-0.0195,-0.0234,-0.0181,-0.0239,-0.0242,-0.0292,-0.0301,-0.032,-0.0347,-0.0352,-0.0373,-0.0375,-0.0376,-0.0377,0,0,0,0,0,0,0,0.0038,0.0028,-0.0055,-0.0069,-0.0078,-0.0105,-0.0118,-0.0139,-0.0226,-0.0186,-0.0194,-0.0201,-0.0297,-0.0317,-0.0323,-0.0354,-0.0373,-0.0376,-0.0378,-0.0379,-0.0438,-0.0438,0,0,0,0,0,0,0.0058,0.0033,-0.0052,-0.0058,-0.0027,-0.0105,-0.012,-0.0137,-0.0226,-0.024,-0.02,-0.0206,-0.0311,-0.032,-0.0328,-0.0354,-0.0376,-0.0379,-0.0381,-0.0438,-0.0438,-0.0438,0,0,0,0,0,0,0.006,0.0051,-0.0047,-0.0013,-0.0027,-0.0104,-0.0123,-0.0138,-0.0181,-0.0235,-0.0251,-0.0229,-0.0313,-0.0324,-0.0365,-0.0358,-0.038,-0.0383,-0.0438,-0.0438,-0.0438,-0.0375,0,0,0,0,0,0,0.0064,0.0052,0.0047,-0.0012,-0.0028,-0.0064,-0.0122,-0.0139,-0.018,-0.0191,-0.0265,-0.0277,-0.0315,-0.0361,-0.0368,-0.0362,-0.0385,-0.0438,-0.0438,-0.0438,-0.0377,-0.0372,-0.0368,0,0,0,0,0,0.0068,0.0078,0.0047,0.0037,-0.0033,-0.0063,-0.0073,-0.0137,-0.0179,-0.0186,-0.0248,-0.0276,-0.0364,-0.0363,-0.0372,-0.0366,-0.0439,-0.0438,-0.0438,-0.0379,-0.0373,-0.0369,0,0,0,0,0,0,0.0128,0.0066,0.0031,0.0021,-0.0019,-0.0081,-0.0092,-0.0137,-0.0192,-0.0214,-0.0274,-0.0289,-0.0324,-0.0351,-0.0348,-0.0383,-0.0406,-0.0407,-0.0358,-0.0353,-0.0349,-0.0324,-0.0388,0,0,0,0,0,0.0141,0.0126,0.0066,0.0058,0.0037,-0.0032,-0.0054,-0.0099,-0.0152,-0.0181,-0.0233,-0.0286,-0.0323,-0.0344,-0.0381,-0.0393,-0.0416,-0.0396,-0.0392,-0.0388,-0.0374,-0.0421,-0.042,-0.0436,-0.0436,-0.0436,0,0,0.0162,0.0128,0.0118,0.007,0.0027,0.001,-0.0052,-0.0086,-0.0102,-0.0181,-0.0221,-0.0274,-0.0324,-0.0349,-0.0365,-0.0374,-0.0391,-0.0387,-0.0384,-0.0372,-0.0421,-0.0419,-0.0417,-0.0436,-0.0436,-0.0436,0,0,0.0201,0.0164,0.0157,0.0128,0.0072,0.0038,0.0028,-0.0043,-0.008,-0.0117,-0.0182,-0.0229,-0.0284,-0.0319,-0.0342,-0.033,-0.037,-0.0346,-0.0301,-0.0346,-0.0345,-0.0344,-0.0351,-0.0352,-0.034,-0.034,-0.034,0,0.0219,0.0206,0.0156,0.0142,0.0128,0.0053,0.0048,0.0012,-0.0062,-0.0079,-0.0122,-0.0215,-0.0264,-0.0288,-0.0294,-0.0319,-0.0344,-0.0315,-0.034,-0.034,-0.034,-0.0348,-0.0349,-0.0337,-0.0338,-0.0338,-0.0338,0,0.0247,0.0234,0.0232,0.0189,0.0176,0.016,0.0109,0.0083,0.003,-0.0011,-0.006,-0.0136,-0.0189,-0.0214,-0.0253,-0.0276,-0.0291,-0.0332,-0.0349,-0.0334,-0.0344,-0.0346,-0.0333,-0.0334,-0.0335,-0.0336,0,0,0.0271,0.0253,0.0246,0.0247,0.0196,0.0192,0.0178,0.015,0.0147,0.0064,0.0055,-0.003,-0.0086,-0.0116,-0.0177,-0.0219,-0.0245,-0.0273,-0.0277,-0.0271,-0.0322,-0.0262,-0.0259,-0.03,-0.0301,-0.0301,-0.032,0,0.0293,0.0303,0.0286,0.0302,0.0302,0.0258,0.0264,0.0232,0.0193,0.0169,0.0081,0.0042,-0.0042,-0.0074,-0.0129,-0.0219,-0.0252,-0.0234,-0.0344,-0.0346,-0.0289,-0.0261,-0.0289,-0.0302,-0.0322,-0.0323,-0.0323,0,0.0304,0.0317,0.0338,0.0366,0.0362,0.0366,0.037,0.0367,0.0324,0.0292,0.0229,0.0153,0.0079,0.0001,-0.0134,-0.0124,-0.0212,-0.0282,-0.0285,-0.0251,-0.0291,-0.0326,-0.0307,-0.0328,-0.0328,-0.0327,-0.0327,0,0.0337,0.0353,0.0383,0.0383,0.0396,0.0405,0.0414,0.0393,0.041,0.0363,0.0359,0.0251,0.0205,0.0065,-0.0084,-0.0121,-0.0216,-0.0288,-0.0308,-0.0304,-0.0357,-0.0355,-0.0374,-0.0373,-0.0373,-0.0373,-0.0373,0,0.0361,0.0382,0.0401,0.0411,0.0464,0.0455,0.0502,0.0494,0.0497,0.0528,0.0419,0.0425,0.0213,0.0126,-0.0033,-0.0151,-0.018,-0.0278,-0.0303,-0.0331,-0.0328,-0.0383,-0.0384,-0.0374,-0.0374,-0.0374,-0.0374,0,0.038,0.0386,0.0426,0.0457,0.0473,0.0507,0.0564,0.0609,0.0596,0.0631,0.0617,0.0554,0.0455,0.027,0.0077,-0.0053,-0.0195,-0.023,-0.0218,-0.024,-0.0267,-0.0264,-0.0264,-0.0262,-0.026,-0.0259,-0.0258,0,0.0395,0.0414,0.046,0.0497,0.0508,0.0564,0.0616,0.0643,0.0696,0.0718,0.075,0.0683,0.0661,0.0445,0.0185,-0.0041,-0.0097,-0.0189,-0.0266,-0.023,-0.0255,-0.0256,-0.0255,-0.0316,-0.0315,-0.0315,-0.0314,0,0.0434,0.0437,0.0475,0.0543,0.06,0.0684,0.0754,0.0812,0.0851,0.09,0.0967,0.0959,0.0755,0.0525,0.024,0.008,-0.016,-0.0181,-0.0169,-0.0316,-0.0275,-0.03,-0.03,-0.031,-0.031,-0.0311,-0.0311,-0.0311,0.046,0.0496,0.0539,0.0608,0.0679,0.0784,0.0858,0.0961,0.1071,0.1155,0.1147,0.1092,0.0746,0.0364,0.0159,-0.0061,-0.0077,-0.0218,-0.0222,-0.0227,-0.0207,-0.0162,-0.0171,-0.0171,-0.017,-0.017,-0.017,0,0.0499,0.0537,0.0612,0.0697,0.0785,0.0801,0.0943,0.1047,0.1193,0.1214,0.129,0.0931,0.0684,0.0358,0.0023,-0.0165,-0.0215,-0.0207,-0.0277,-0.028,-0.0284,-0.027,-0.0249,-0.0249,-0.025,-0.025,0,0,0.0526,0.0593,0.0636,0.0772,0.0824,0.0941,0.1015,0.1189,0.1223,0.129,0.1183,0.1057,0.0595,0.0299,0.0048,-0.0086,-0.0128,-0.0102,-0.0029,-0.0087,-0.0087,-0.0289,-0.0269,0,0,0,0,0]}],[{"header":{"parameterUnit":"m.s-1","parameterCategory":2,"la1":30.2991,"la2":30.254,"lo1":-89.0895,"lo2":-89.0444,"dy":0.0017,"dx":0.0017,"nx":28,"ny":28,"refTime":"2024-11-26T03:00:00:Z","depth":"4","parameterNumber":2,"parameterNumberName":"U-component_of_CURRENTS"},"data":[0,0,0,0,0,0,0,0,0,0,0,0,0,0,0,0,0,0,0,0,0,0,0,0,0,0,0,0,0,0,0,0,0,0,0,0,0,0,0,0,0,0,0,0,0,0,0,0,0,0,0,0,0,0,0,0,0,0,0.0141,0.0142,0,0.0162,0.0161,0.0161,0.0174,0.0175,0.0175,0.0176,0.0183,0.0182,0.0182,0,0,0,0,0,0,0,0,0,0,0,0,0,0.0099,0.0099,0.0141,0.0142,0.0142,0.0162,0.0161,0.0161,0.0174,0.0175,0.0175,0.0176,0.0183,0.0182,0.0182,0,0,0,0,0,0,0,0,0,0,0,0,0,0.0113,0.0099,0.0141,0.0155,0.0157,0.0162,0.0161,0.0161,0.0174,0.0175,0.0176,0.0176,0.0183,0.0182,0.0182,0.0163,0,0,0.018,0.018,0,0,0,0,0,0,0,0,0.0112,0.0114,0.0152,0.0154,0.0156,0.0171,0.0149,0.0163,0.0174,0.0162,0.0176,0.0177,0.018,0.018,0.0175,0.0163,0.0164,0.018,0.018,0.018,0.018,0,0,0,0,0,0,0,0.0111,0.0113,0.0144,0.0153,0.0155,0.0156,0.0158,0.0151,0.0162,0.0163,0.0165,0.0175,0.018,0.0175,0.0175,0.0164,0.018,0.018,0.018,0.018,0.0156,0.0156,0,0,0,0,0,0,0.0119,0.0112,0.0144,0.0145,0.0141,0.0156,0.0159,0.0161,0.0163,0.0165,0.0175,0.0176,0.0176,0.0176,0.0176,0.0183,0.018,0.018,0.0179,0.0157,0.0156,0.0156,0,0,0,0,0,0,0.0118,0.0121,0.0143,0.0134,0.0137,0.0157,0.0159,0.0161,0.0174,0.0172,0.0174,0.0188,0.0176,0.0176,0.0179,0.0182,0.0179,0.0179,0.0157,0.0157,0.0156,0.0178,0,0,0,0,0,0,0.0116,0.012,0.0129,0.0134,0.0138,0.0158,0.0159,0.0161,0.018,0.0182,0.0184,0.0184,0.0177,0.0179,0.0178,0.0181,0.0178,0.0158,0.0157,0.0156,0.0178,0.0179,0.0179,0,0,0,0,0,0.0114,0.0119,0.0129,0.0134,0.0148,0.0159,0.0161,0.0174,0.018,0.0187,0.0185,0.0185,0.0174,0.0179,0.0177,0.0181,0.0158,0.0157,0.0156,0.0178,0.0178,0.0179,0,0,0,0,0,0,0.0104,0.0122,0.0133,0.0143,0.016,0.0164,0.0173,0.0182,0.0185,0.0189,0.0183,0.0183,0.0184,0.0177,0.0182,0.017,0.0165,0.0164,0.0182,0.0182,0.0183,0.0197,0.0178,0,0,0,0,0,0.0108,0.012,0.0135,0.0149,0.0154,0.0166,0.0175,0.0186,0.0189,0.0192,0.0192,0.0186,0.0175,0.0177,0.0167,0.0164,0.0168,0.0163,0.0164,0.0165,0.0174,0.0178,0.018,0.0154,0.0154,0.0154,0,0,0.011,0.0123,0.0131,0.0149,0.0158,0.0173,0.0172,0.0189,0.0206,0.0191,0.0207,0.019,0.0174,0.0169,0.0168,0.0168,0.0174,0.0164,0.0165,0.0174,0.0177,0.018,0.0182,0.0153,0.0153,0.0153,0,0,0.0115,0.0129,0.0138,0.0153,0.0177,0.0186,0.0197,0.0208,0.0216,0.0225,0.0213,0.0204,0.0194,0.0183,0.0174,0.0173,0.0175,0.0165,0.0184,0.0187,0.019,0.0192,0.0205,0.0208,0.0167,0.0167,0.0167,0,0.012,0.0133,0.0144,0.0157,0.0177,0.0196,0.0213,0.0222,0.0236,0.024,0.0236,0.0215,0.0202,0.0193,0.0187,0.0177,0.0181,0.0185,0.019,0.0192,0.0194,0.0206,0.021,0.0168,0.0168,0.0168,0.0168,0,0.0126,0.0147,0.0153,0.0181,0.0201,0.022,0.024,0.0257,0.0267,0.0272,0.0269,0.0245,0.0234,0.0221,0.0203,0.0205,0.0204,0.019,0.0193,0.0199,0.021,0.0214,0.017,0.0169,0.0169,0.0169,0,0,0.0116,0.015,0.0158,0.0179,0.0218,0.0235,0.0264,0.0288,0.0308,0.0306,0.0319,0.0287,0.0274,0.0262,0.0237,0.0235,0.0247,0.022,0.0219,0.0242,0.0263,0.0244,0.0246,0.0235,0.0236,0.0236,0.0267,0,0.0123,0.0149,0.0171,0.0215,0.023,0.0265,0.0293,0.032,0.0332,0.0347,0.0325,0.0323,0.029,0.0281,0.0273,0.0249,0.0256,0.0241,0.0247,0.0247,0.0237,0.0249,0.0238,0.027,0.0271,0.0271,0.0272,0,0.0125,0.0144,0.0179,0.0233,0.0244,0.0282,0.0334,0.036,0.0383,0.0387,0.0382,0.0366,0.0354,0.0328,0.031,0.0301,0.0289,0.0275,0.0276,0.0255,0.0234,0.026,0.0277,0.0277,0.0276,0.0276,0.0276,0,0.0107,0.0156,0.0188,0.0206,0.0264,0.0298,0.0335,0.0374,0.04,0.0416,0.0431,0.041,0.0409,0.0384,0.0339,0.0332,0.0324,0.0311,0.0291,0.029,0.0289,0.0286,0.0318,0.0318,0.0318,0.0318,0.0318,0,0.0105,0.0132,0.0189,0.0206,0.0259,0.0301,0.0359,0.0386,0.043,0.0447,0.0452,0.0435,0.0424,0.0406,0.0364,0.0332,0.0345,0.0304,0.0297,0.0297,0.0294,0.0292,0.0288,0.0319,0.0319,0.0319,0.0318,0,0.0082,0.0117,0.0155,0.0222,0.0253,0.0292,0.0384,0.0413,0.046,0.0483,0.049,0.0481,0.0439,0.0427,0.0388,0.0373,0.0336,0.0324,0.0335,0.0326,0.0301,0.0298,0.0324,0.0323,0.0323,0.0323,0.0323,0,0.0071,0.0087,0.0161,0.0197,0.0237,0.0306,0.0351,0.0418,0.0436,0.0473,0.0462,0.0463,0.0438,0.0389,0.0354,0.0324,0.0309,0.0332,0.0312,0.0311,0.0302,0.03,0.0298,0.0322,0.0322,0.0322,0.0322,0,0.0044,0.0076,0.0107,0.0177,0.0238,0.0294,0.0352,0.037,0.0421,0.0472,0.0443,0.0433,0.0399,0.0351,0.0355,0.0308,0.0338,0.0328,0.0329,0.0311,0.0309,0.03,0.0298,0.0321,0.0321,0.0321,0.0321,0,0.0029,0.0044,0.0093,0.0158,0.0229,0.0264,0.0299,0.0329,0.0367,0.0416,0.0378,0.0363,0.0369,0.0338,0.0297,0.0299,0.0295,0.0316,0.0317,0.0318,0.0298,0.0294,0.0304,0,0,0,0,0,0.0012,0.0027,0.0073,0.0138,0.0205,0.0242,0.0294,0.0319,0.0361,0.0347,0.0382,0.0335,0.0318,0.0282,0.0278,0.0268,0.028,0.0265,0.0302,0.0314,0.0316,0.0289,0,0,0,0,0,0,0.0001,0.0033,0.0054,0.0114,0.0153,0.0213,0.0242,0.0263,0.0256,0.03,0.0271,0.0338,0.029,0.0312,0.0272,0.0272,0.0299,0.027,0.0271,0.0313,0.0315,0.0316,0.0289,0,0,0,0,0]},{"header":{"parameterUnit":"m.s-1","parameterCategory":2,"la1":30.2991,"la2":30.254,"lo1":-89.0895,"lo2":-89.0444,"dy":0.0017,"dx":0.0017,"nx":28,"ny":28,"refTime":"2024-11-26T03:00:00:Z","depth":"4","parameterNumber":3,"parameterNumberName":"V-component_of_CURRENTS"},"data":[0,0,0,0,0,0,0,0,0,0,0,0,0,0,0,0,0,0,0,0,0,0,0,0,0,0,0,0,0,0,0,0,0,0,0,0,0,0,0,0,0,0,0,0,0,0,0,0,0,0,0,0,0,0,0,0,0,0,0.0263,0.0263,0,0.0224,0.0223,0.0222,0.0175,0.0174,0.0174,0.0174,0.0044,0.0041,0.0038,0,0,0,0,0,0,0,0,0,0,0,0,0,0.0269,0.0269,0.0263,0.0263,0.0263,0.0224,0.0223,0.0222,0.0175,0.0174,0.0174,0.0174,0.0045,0.0041,0.0037,0,0,0,0,0,0,0,0,0,0,0,0,0,0.0247,0.0269,0.0263,0.0239,0.0236,0.0224,0.0223,0.0221,0.0175,0.0174,0.0174,0.0174,0.0046,0.0042,0.0037,0.0015,0,0,0.0022,0.002,0,0,0,0,0,0,0,0,0.0248,0.0246,0.0242,0.024,0.0238,0.0208,0.0177,0.0149,0.0175,0.0193,0.0174,0.0173,0.0094,0.0085,0.0073,0.0009,0.0003,0.0022,0.0019,0.0017,0.0015,0,0,0,0,0,0,0,0.025,0.0247,0.0242,0.0242,0.024,0.022,0.0216,0.0172,0.014,0.0191,0.0189,0.0193,0.0091,0.0078,0.0069,0.0001,0.0022,0.0017,0.0014,0.0013,-0.0129,-0.0129,0,0,0,0,0,0,0.0267,0.0249,0.0243,0.0241,0.0248,0.0221,0.0216,0.0214,0.0143,0.0134,0.0193,0.0191,0.0086,0.0075,0.0064,-0.0002,0.0017,0.0012,0.0009,-0.0128,-0.0129,-0.013,0,0,0,0,0,0,0.0267,0.0267,0.0245,0.0249,0.0245,0.0222,0.0219,0.0213,0.0186,0.0146,0.0134,0.0171,0.0085,0.0071,0.0009,-0.0006,0.001,0.0005,-0.0127,-0.0128,-0.0129,-0.0111,0,0,0,0,0,0,0.0267,0.0267,0.0268,0.025,0.0246,0.0233,0.022,0.0213,0.0193,0.0189,0.0124,0.0112,0.0084,0.0016,0.0004,-0.0012,0.0002,-0.0126,-0.0127,-0.0129,-0.0111,-0.0112,-0.0112,0,0,0,0,0,0.0267,0.0269,0.0268,0.0268,0.0249,0.0234,0.0229,0.0208,0.0192,0.018,0.013,0.0113,-0.0002,0.0011,-0.0003,-0.002,-0.0125,-0.0127,-0.0129,-0.011,-0.0111,-0.0112,0,0,0,0,0,0,0.0266,0.0265,0.0263,0.0262,0.025,0.0227,0.022,0.0201,0.0154,0.0141,0.0096,0.0081,0.0024,-0.0004,0.0013,-0.0066,-0.0064,-0.0069,-0.0045,-0.0047,-0.0048,-0.0039,-0.0002,0,0,0,0,0,0.0271,0.0274,0.0265,0.0264,0.026,0.0237,0.0227,0.0208,0.0171,0.015,0.0104,0.0053,0.0008,-0.0024,-0.0066,-0.0115,-0.0124,-0.0134,-0.0135,-0.0136,-0.0138,-0.016,-0.0162,-0.0136,-0.0136,-0.0136,0,0,0.0272,0.0272,0.0273,0.0265,0.0253,0.0241,0.0227,0.0208,0.0185,0.0141,0.0085,0.0045,-0.0006,-0.0057,-0.0085,-0.0085,-0.0147,-0.0138,-0.0138,-0.014,-0.0162,-0.0164,-0.0166,-0.0137,-0.0137,-0.0137,0,0,0.0273,0.0273,0.0275,0.0266,0.0254,0.0238,0.0231,0.0197,0.017,0.0118,0.0083,0.0034,-0.004,-0.0075,-0.0103,-0.0137,-0.0149,-0.0152,-0.0154,-0.0174,-0.0176,-0.0178,-0.0183,-0.0185,-0.0154,-0.0154,-0.0154,0,0.0274,0.0274,0.0271,0.0267,0.0258,0.0236,0.0222,0.0195,0.0141,0.0111,0.0101,-0.0007,-0.0047,-0.0108,-0.0117,-0.0138,-0.0147,-0.0143,-0.0174,-0.0176,-0.0178,-0.0182,-0.0185,-0.0153,-0.0153,-0.0153,-0.0153,0,0.027,0.0272,0.027,0.0261,0.0247,0.0232,0.0204,0.0172,0.0136,0.0104,0.0034,-0.0018,-0.0079,-0.0098,-0.012,-0.0161,-0.016,-0.0168,-0.0165,-0.0179,-0.0183,-0.0187,-0.0152,-0.0152,-0.0153,-0.0153,0,0,0.0267,0.0268,0.0269,0.0262,0.024,0.0225,0.019,0.0148,0.0114,0.0062,0.0013,-0.0055,-0.0081,-0.0114,-0.0146,-0.0167,-0.0183,-0.0173,-0.0175,-0.0167,-0.0218,-0.0209,-0.0211,-0.0195,-0.0196,-0.0196,-0.0211,0,0.0262,0.0262,0.0257,0.024,0.0232,0.0204,0.0174,0.0131,0.0087,0.0034,-0.0018,-0.0073,-0.0087,-0.0117,-0.0141,-0.0181,-0.0193,-0.0178,-0.0216,-0.0217,-0.0198,-0.0216,-0.0199,-0.0213,-0.0214,-0.0215,-0.0215,0,0.0255,0.0257,0.0252,0.0228,0.0219,0.0203,0.0147,0.0116,0.0049,0.0013,-0.0041,-0.0081,-0.0133,-0.0134,-0.0193,-0.0183,-0.0197,-0.0216,-0.0217,-0.0218,-0.0214,-0.0201,-0.0221,-0.0221,-0.022,-0.022,-0.0219,0,0.0253,0.0246,0.0243,0.0237,0.0211,0.0191,0.0164,0.0106,0.0076,0.0005,-0.0023,-0.0093,-0.0125,-0.0161,-0.0194,-0.0198,-0.0243,-0.0254,-0.0254,-0.0253,-0.0263,-0.0261,-0.028,-0.028,-0.028,-0.028,-0.028,0,0.0243,0.0239,0.0245,0.0242,0.0222,0.0194,0.0159,0.0119,0.0069,0.0033,-0.0027,-0.0068,-0.0133,-0.0167,-0.0195,-0.0231,-0.0241,-0.0257,-0.0261,-0.0254,-0.0251,-0.0264,-0.0262,-0.0281,-0.028,-0.028,-0.028,0,0.0236,0.0245,0.0246,0.0233,0.0227,0.021,0.0177,0.0149,0.0101,0.0057,0.0039,-0.0047,-0.0104,-0.0148,-0.0208,-0.0228,-0.0264,-0.0265,-0.024,-0.0241,-0.026,-0.0257,-0.0288,-0.0287,-0.0287,-0.0287,-0.0287,0,0.0227,0.0234,0.025,0.0255,0.0251,0.023,0.0216,0.0172,0.0145,0.0068,0.0045,-0.0023,-0.0077,-0.0154,-0.0205,-0.0252,-0.0254,-0.0264,-0.0282,-0.0263,-0.0264,-0.0261,-0.0258,-0.0287,-0.0287,-0.0287,-0.0287,0,0.0213,0.0234,0.0239,0.026,0.026,0.0251,0.0224,0.0205,0.015,0.0127,0.0044,-0.0019,-0.0085,-0.0161,-0.0184,-0.0221,-0.0262,-0.0263,-0.0264,-0.0281,-0.0263,-0.0263,-0.026,-0.0287,-0.0287,-0.0287,-0.0287,0,0.0207,0.0214,0.024,0.0247,0.0268,0.0256,0.0235,0.0195,0.0166,0.0088,0.0065,-0.0022,-0.007,-0.0145,-0.0173,-0.0203,-0.0225,-0.0235,-0.0238,-0.0239,-0.0223,-0.0192,-0.0201,0,0,0,0,0,0.0195,0.0201,0.0216,0.0228,0.0257,0.0268,0.0237,0.0211,0.0171,0.0124,0.0092,0.003,-0.006,-0.0117,-0.0146,-0.0176,-0.0225,-0.0212,-0.0237,-0.0285,-0.0285,-0.0274,0,0,0,0,0,0,0.0184,0.0204,0.0209,0.0223,0.0239,0.0253,0.0242,0.0205,0.0166,0.0124,0.0073,0.0045,-0.0042,-0.0021,-0.0133,-0.0148,-0.0167,-0.0252,-0.0253,-0.0285,-0.0285,-0.0285,-0.0274,0,0,0,0,0]}]]